Zurück zum Katalog

DELTA 1 DEB

AktivSSO
NORAD 12174·DEBRIS·🇺🇸 United States

Gestartet Mar 5, 1978 von Vandenberg Space Force Base

Loading…

Nächste Überflüge (nächste 24 Stunden)

TLE

AktuellSource: Space-Track

Epoche: Sep 14, 2026, 13:12 UTC

1 12174U 78026P   26257.55028281  .00000102  00000-0  81714-4 0  9999
2 12174  99.0192 292.5958 0042918  85.7937  78.0883 14.10411632344334

Verfolge DELTA 1 DEB in Echtzeit mit AllMySat

Download on the App Store